Date String (YYYY-MM-DD hh:mm:ss) UTC,Instrument flags,Ambient pressure (hPa),Sample flow (lpm),Bypass flow (lpm),Sample temperature (°C),Ambient temperature (°C),ASC tube jacket temperature (°C),LED temperature (°C),Box temperature (°C),Sample RH (%),Span deviation,Mass concentration (μg/m³),Mass concentration (μg/m³),Mass concentration (μg/m³)
DateTimeUTC,F1_M11,P_M11,Q1_M11,Q2_M11,T1_M11,T2_M11,T3_M11,T4_M11,T5_M11,U1_M11,ZSPAN_M11,X0_M11,X2_M11,X1_M11
2022-07-08 04:00:00,,0832.1,4.99,0.00,29.4,27.2,00.0,38.2,31.2,33.9,0000.0,0009.72,0004.17,0003.47
2022-07-08 04:01:00,,0832.0,4.99,0.00,29.4,27.4,00.0,38.2,31.2,34.2,0000.0,0009.98,0004.15,0003.45
2022-07-08 04:02:00,,0832.1,5.00,0.00,29.4,27.6,00.0,38.2,31.2,34.5,0000.0,0010.05,0004.11,0003.42
2022-07-08 04:03:00,,0832.1,5.00,0.00,29.4,27.7,00.0,38.2,31.3,34.3,0000.0,0010.47,0004.13,0003.40
2022-07-08 04:04:00,,0832.1,5.00,0.00,29.4,27.9,00.0,38.2,31.3,34.2,0000.0,0010.48,0004.18,0003.38
2022-07-08 04:05:00,,0832.1,5.01,0.00,29.4,28.0,00.0,38.2,31.3,34.1,0000.0,0010.61,0004.20,0003.36
2022-07-08 04:06:00,,0832.1,5.00,0.00,29.4,28.1,00.0,38.2,31.4,34.0,0000.0,0010.70,0004.25,0003.34
2022-07-08 04:07:00,,0832.2,5.00,0.00,29.5,28.2,00.0,38.2,31.4,33.8,0000.0,0010.50,0004.26,0003.31
2022-07-08 04:08:00,,0832.2,4.99,0.00,29.5,28.3,00.0,38.2,31.5,33.8,0000.0,0010.75,0004.30,0003.29
2022-07-08 04:09:00,,0832.2,4.98,0.00,29.5,28.4,00.0,38.2,31.5,33.7,0000.0,0011.30,0004.35,0003.27
2022-07-08 04:10:00,,0832.2,4.99,0.00,29.6,28.5,00.0,38.3,31.5,33.6,0000.0,0011.88,0004.37,0003.25
2022-07-08 04:11:00,,0832.2,5.00,0.00,29.6,28.6,00.0,38.3,31.6,33.5,0000.0,0011.71,0004.35,0003.23
2022-07-08 04:12:00,,0832.2,5.00,0.00,29.6,28.6,00.0,38.3,31.6,33.3,0000.0,0011.61,0004.36,0003.21
2022-07-08 04:13:00,,0832.2,5.00,0.00,29.7,28.7,00.0,38.3,31.7,33.1,0000.0,0011.67,0004.39,0003.20
2022-07-08 04:14:00,,0832.1,5.00,0.00,29.7,28.3,00.0,38.3,31.7,33.0,0000.0,0011.24,0004.39,0003.20
2022-07-08 04:15:00,,0832.1,5.00,0.00,29.7,27.7,00.0,38.3,31.6,32.8,0000.0,0011.21,0004.33,0003.18
2022-07-08 04:16:00,,0832.1,5.00,0.00,29.6,27.4,00.0,38.3,31.5,32.7,0000.0,0011.11,0004.26,0003.18
2022-07-08 04:17:00,,0832.1,5.01,0.00,29.5,27.4,00.0,38.3,31.4,32.7,0000.0,0011.01,0004.22,0003.16
2022-07-08 04:18:00,,0832.1,5.00,0.00,29.5,27.5,00.0,38.3,31.3,32.8,0000.0,0011.38,0004.18,0003.15
2022-07-08 04:19:00,,0832.1,5.00,0.00,29.5,27.6,00.0,38.3,31.3,32.9,0000.0,0012.41,0004.15,0003.14
2022-07-08 04:20:00,,0832.1,5.00,0.00,29.5,27.8,00.0,38.3,31.4,32.8,0000.0,0012.38,0004.11,0003.12
2022-07-08 04:21:00,,0832.1,4.99,0.00,29.5,27.9,00.0,38.3,31.4,32.8,0000.0,0011.99,0004.06,0003.08
2022-07-08 04:22:00,,0832.1,5.00,0.00,29.5,28.0,00.0,38.3,31.4,32.7,0000.0,0013.06,0004.01,0003.04
2022-07-08 04:23:00,,0832.1,5.00,0.00,29.5,28.2,00.0,38.3,31.5,32.5,0000.0,0013.13,0003.96,0002.99
2022-07-08 04:24:00,,0832.1,4.99,0.00,29.5,28.3,00.0,38.3,31.5,32.6,0000.0,0013.03,0003.93,0002.96
2022-07-08 04:25:00,,0832.1,5.00,0.00,29.6,28.4,00.0,38.3,31.5,32.4,0000.0,0013.25,0003.95,0002.94
2022-07-08 04:26:00,,0832.1,5.00,0.00,29.6,28.5,00.0,38.3,31.6,32.5,0000.0,0013.00,0003.92,0002.91
2022-07-08 04:27:00,,0832.2,5.00,0.00,29.6,28.5,00.0,38.4,31.6,32.7,0000.0,0012.65,0003.94,0002.93
2022-07-08 04:28:00,,0832.2,5.00,0.00,29.7,28.6,00.0,38.4,31.7,32.7,0000.0,0012.22,0003.92,0002.95
2022-07-08 04:29:00,,0832.3,5.00,0.00,29.7,28.7,00.0,38.4,31.7,32.7,0000.0,0011.59,0003.88,0002.97
2022-07-08 04:30:00,,0832.2,5.00,0.00,29.7,28.7,00.0,38.4,31.7,32.7,0000.0,0010.55,0003.84,0002.98
2022-07-08 04:31:00,,0832.3,5.00,0.00,29.8,28.4,00.0,38.4,31.7,32.8,0000.0,0009.56,0003.80,0003.01
2022-07-08 04:32:00,,0832.2,5.00,0.00,29.7,27.6,00.0,38.3,31.6,32.9,0000.0,0009.33,0003.79,0003.04
2022-07-08 04:33:00,,0832.2,5.00,0.00,29.7,27.0,00.0,38.3,31.4,33.0,0000.0,0008.38,0003.78,0003.08
2022-07-08 04:34:00,,0832.2,4.99,0.00,29.6,26.8,00.0,38.3,31.3,33.1,0000.0,0008.11,0003.81,0003.12
2022-07-08 04:35:00,,0832.2,5.00,0.00,29.5,26.9,00.0,38.3,31.2,33.2,0000.0,0008.27,0003.86,0003.15
2022-07-08 04:36:00,,0832.3,5.01,0.00,29.4,27.0,00.0,38.2,31.2,33.4,0000.0,0008.13,0003.85,0003.17
2022-07-08 04:37:00,,0832.3,5.00,0.00,29.4,27.2,00.0,38.2,31.2,33.4,0000.0,0007.95,0003.83,0003.20
2022-07-08 04:38:00,,0832.4,5.00,0.00,29.4,27.4,00.0,38.2,31.2,33.4,0000.0,0008.31,0003.82,0003.22
2022-07-08 04:39:00,,0832.3,5.00,0.00,29.4,27.6,00.0,38.2,31.2,33.4,0000.0,0008.81,0003.86,0003.24
2022-07-08 04:40:00,,0832.3,5.01,0.00,29.4,27.7,00.0,38.2,31.3,33.3,0000.0,0009.09,0003.94,0003.27
2022-07-08 04:41:00,,0832.3,5.00,0.00,29.4,27.9,00.0,38.2,31.3,33.2,0000.0,0009.33,0004.04,0003.29
2022-07-08 04:42:00,,0832.3,5.00,0.00,29.4,28.0,00.0,38.2,31.3,33.2,0000.0,0009.50,0004.11,0003.31
2022-07-08 04:43:00,,0832.3,5.00,0.00,29.4,28.1,00.0,38.2,31.4,33.2,0000.0,0009.72,0004.20,0003.34
2022-07-08 04:44:00,,0832.3,5.00,0.00,29.5,28.2,00.0,38.2,31.4,33.1,0000.0,0009.70,0004.23,0003.37
2022-07-08 04:45:00,,0832.3,5.00,0.00,29.5,28.3,00.0,38.2,31.4,33.1,0000.0,0009.89,0004.26,0003.40
2022-07-08 04:46:00,,0832.4,5.01,0.00,29.5,28.4,00.0,38.3,31.5,33.1,0000.0,0010.17,0004.28,0003.43
2022-07-08 04:47:00,,0832.5,5.00,0.00,29.5,28.4,00.0,38.3,31.5,32.9,0000.0,0010.30,0004.31,0003.46
2022-07-08 04:48:00,,0832.5,5.00,0.00,29.6,28.5,00.0,38.3,31.5,32.9,0000.0,0010.53,0004.38,0003.50
2022-07-08 04:49:00,,0832.5,5.00,0.00,29.6,28.6,00.0,38.3,31.6,33.0,0000.0,0010.14,0004.40,0003.52
2022-07-08 04:50:00,,0832.6,5.00,0.00,29.6,28.6,00.0,38.3,31.6,32.8,0000.0,0009.83,0004.42,0003.55
2022-07-08 04:51:00,,0832.6,5.00,0.00,29.7,28.7,00.0,38.4,31.7,32.6,0000.0,0009.92,0004.44,0003.57
2022-07-08 04:52:00,,0832.6,5.00,0.00,29.7,28.7,00.0,38.4,31.7,32.6,0000.0,0009.87,0004.40,0003.59
2022-07-08 04:53:00,,0832.6,4.99,0.00,29.7,28.8,00.0,38.4,31.7,32.5,0000.0,0009.82,0004.38,0003.61
2022-07-08 04:54:00,,0832.6,5.00,0.00,29.8,28.7,00.0,38.4,31.8,32.4,0000.0,0009.82,0004.40,0003.64
2022-07-08 04:55:00,,0832.6,5.00,0.00,29.8,28.0,00.0,38.4,31.7,32.6,0000.0,0010.00,0004.47,0003.66
2022-07-08 04:56:00,,0832.6,5.00,0.00,29.7,27.5,00.0,38.3,31.6,32.6,0000.0,0009.45,0004.49,0003.67
2022-07-08 04:57:00,,0832.6,5.00,0.00,29.7,27.3,00.0,38.3,31.4,32.8,0000.0,0009.58,0004.49,0003.68
2022-07-08 04:58:00,,0832.6,5.00,0.00,29.6,27.3,00.0,38.3,31.4,32.9,0000.0,0009.53,0004.48,0003.69
2022-07-08 04:59:00,,0832.6,4.99,0.00,29.5,27.5,00.0,38.3,31.3,32.8,0000.0,0009.45,0004.47,0003.69
